THORAD AGENA D DEB

Satellite information

Favourite Embed

Satellite Type and Status

DEBRISIN ORBIT

Key statistics

Satellite THORAD AGENA D DEB at a glance.

Uptime

20479

Days in orbit

Revolutions

≈ 14.4

Per day

Orbit

LEO

Low Earth Orbit

Inclination

70.0

Latest

Satellite identification and parameters

Extended collection of information and parameters for THORAD AGENA D DEB.

Object identification

Identified? True

Debris? True

Object name: THORAD AGENA D DEB

International designator: 1969-082CG

Object number (NORAD): 4217

Object ID (CCSDS): 4217

Country: UNITED STATES OF AMERICA (US)

Current information (Y/N): Y

RCS size: MEDIUM

Orbital parameters

Period: 99.91 minutes

Inclination: 70.0387 deg

SMA: 7132.352 km

Apoapsis: 780.002 km

Periapsis: 728.432 km

RAAN: 331.4881 deg

Eccentricy: 0.00361521

Argument of periapsis: 338.9365 deg

Mean anomaly: 21.0274 deg

Mean motion: 14.41297508 rev/day

Mean motion (dot): 0.00001637 rev/day2

B* drag term: 0.00051998418 1/REarth

Two-line elements (TLE)

Creation date: Oct. 25, 2025, 3:11 a.m.

Reference frame: TEME

Reference center: EARTH

Epoch: Oct. 24, 2025, 7:06 p.m. UTC

TLE line 0: 0 THORAD AGENA D DEB

TLE line 1: 1 04217U 69082CG 25297.79602704 .00001637 00000-0 51998-3 0 9991

TLE line 2: 2 04217 70.0387 331.4881 0036152 338.9365 21.0274 14.41297508913878

Live tracking on map

Real-time ground track for satellite THORAD AGENA D DEB.

In-orbit conjunctions

A list of the most updated potential collisions computed for object THORAD AGENA D DEB.

Target Orbit TCA Probability of collision Miss distance Type
SEASAT 1 SSO 2025-04-30 21:56:37 0.0001303807 426.0 (m) PAYLOAD
FENGYUN 1C DEB SSO 2024-11-12 23:59:32 0.0001104682 764.0 (m) DEBRIS

Associated space launch

Poppy was the follow-on ELINT system, which succeeded the Grab ELINT satellite system.

THORAD AGENA D DEB was lifted into orbit during the mission ‘Thorad SLV-2G Agena D | Poppy 8A,B,C,D’, on board a Thorad SLV-2G Agena D space rocket.

The launch took place on Sept. 30, 1969, 1:40 p.m. from Space Launch Complex 1W.

For more information about the launch, click the button.

Launch to space Thorad SLV-2G Agena D | Poppy 8A,B,C,D
Thorad SLV-2G Agena D | Poppy 8A,B,C,D

Agency: N/A

Status: Launch Successful

Launch date: Sept. 30, 1969, 1:40 p.m. UTC

Rocket: Thorad SLV-2G Agena D

Launch pad: Space Launch Complex 1W

Location: Vandenberg SFB, CA, USA

...

Latest news about this satellite

There are no fresh news available about this satellite. Check back as we update our databases every day.


Newsletter sign-up

Weekly statistics, charts and insights to help you stay on top of the space industry.